When you browse on this site, cookies collect data to enhance your experience and personalize the content and advertising you see.
Visit our Privacy Policy to learn more. By continuing to use the site, you agree to this use of cookies and data.
  • Em Portugal
  • Lista de países
  • Para 7 dias
  • Temperatura da água
  • Mapas de satélite
  • Mapa do tempo
  • Widgets de tempo
  • user-avatar
    Iniciar Sessão

    Previsão horária em Biskira

    Hoje, 22 Março, Sexta-feira

    Tempo Temperatura Precipitação Vento Pressão Humidade
    00:00 +15°C° 0 mm 1 m/s 752 mmHg 61%
    01:00 +15°C° 0.1 mm 1 m/s 752 mmHg 62%
    02:00 +15°C° 0.1 mm 1 m/s 752 mmHg 63%
    03:00 +15°C° 0.1 mm 1 m/s 752 mmHg 64%
    04:00 +14°C° 0.5 mm 1 m/s 752 mmHg 67%
    05:00 +14°C° 0.5 mm 1 m/s 752 mmHg 69%
    06:00 +14°C° 0.5 mm 1 m/s 753 mmHg 71%
    07:00 +14°C° 0.1 mm 2 m/s 753 mmHg 67%
    08:00 +15°C° 0.1 mm 2 m/s 753 mmHg 64%
    09:00 +16°C° 0.1 mm 2 m/s 754 mmHg 60%
    10:00 +16°C° 0.1 mm 2 m/s 754 mmHg 55%
    11:00 +17°C° 0.1 mm 2 m/s 754 mmHg 51%
    12:00 +18°C° 0.1 mm 2 m/s 754 mmHg 47%
    13:00 +18°C° 0.1 mm 2 m/s 753 mmHg 46%
    14:00 +18°C° 0.1 mm 2 m/s 753 mmHg 45%
    15:00 +19°C° 0.1 mm 2 m/s 753 mmHg 44%
    16:00 +18°C° 0.1 mm 2 m/s 753 mmHg 44%
    17:00 +18°C° 0.1 mm 3 m/s 754 mmHg 45%
    18:00 +18°C° 0.1 mm 3 m/s 754 mmHg 45%
    19:00 +18°C° 0 mm 3 m/s 754 mmHg 47%
    20:00 +17°C° 0 mm 3 m/s 755 mmHg 49%
    21:00 +17°C° 0 mm 3 m/s 756 mmHg 51%
    22:00 +17°C° 0 mm 3 m/s 756 mmHg 51%
    23:00 +16°C° 0 mm 3 m/s 756 mmHg 52%

    Amanhã, 23 Março, Sábado

    Tempo Temperatura Precipitação Vento Pressão Humidade
    00:00 +16°C° 0 mm 3 m/s 756 mmHg 53%
    01:00 +14°C° 0 mm 3 m/s 756 mmHg 54%
    02:00 +14°C° 0 mm 3 m/s 755 mmHg 55%
    03:00 +14°C° 0 mm 3 m/s 755 mmHg 56%
    04:00 +13°C° 0 mm 3 m/s 755 mmHg 57%
    05:00 +13°C° 0 mm 4 m/s 756 mmHg 57%
    06:00 +13°C° 0 mm 4 m/s 756 mmHg 57%
    07:00 +14°C° 0 mm 4 m/s 756 mmHg 53%
    08:00 +15°C° 0 mm 4 m/s 756 mmHg 48%
    09:00 +17°C° 0 mm 4 m/s 757 mmHg 43%
    10:00 +19°C° 0 mm 3 m/s 757 mmHg 40%
    11:00 +20°C° 0 mm 3 m/s 757 mmHg 37%
    12:00 +21°C° 0 mm 3 m/s 756 mmHg 33%
    13:00 +21°C° 0 mm 3 m/s 756 mmHg 33%
    14:00 +22°C° 0 mm 3 m/s 756 mmHg 33%
    15:00 +22°C° 0 mm 3 m/s 756 mmHg 32%
    16:00 +21°C° 0 mm 3 m/s 756 mmHg 34%
    17:00 +21°C° 0 mm 4 m/s 756 mmHg 36%
    18:00 +21°C° 0 mm 4 m/s 756 mmHg 38%
    19:00 +20°C° 0 mm 4 m/s 757 mmHg 40%
    20:00 +19°C° 0 mm 3 m/s 758 mmHg 43%
    21:00 +18°C° 0 mm 3 m/s 759 mmHg 46%
    22:00 +18°C° 0 mm 2 m/s 759 mmHg 48%
    23:00 +17°C° 0 mm 2 m/s 759 mmHg 50%

    Depois de amanhã, 24 Março, Domingo

    Tempo Temperatura Precipitação Vento Pressão Humidade
    00:00 +16°C° 0 mm 1 m/s 759 mmHg 51%
    01:00 +16°C° 0 mm 1 m/s 759 mmHg 54%
    02:00 +15°C° 0 mm 1 m/s 758 mmHg 56%
    03:00 +14°C° 0 mm 0 m/s 758 mmHg 58%
    04:00 +14°C° 0 mm 1 m/s 759 mmHg 60%
    05:00 +14°C° 0 mm 1 m/s 759 mmHg 62%
    06:00 +14°C° 0 mm 2 m/s 759 mmHg 63%
    07:00 +15°C° 0 mm 2 m/s 759 mmHg 59%
    08:00 +16°C° 0 mm 1 m/s 759 mmHg 55%
    09:00 +18°C° 0 mm 1 m/s 760 mmHg 51%
    10:00 +18°C° 0 mm 2 m/s 759 mmHg 47%
    11:00 +19°C° 0 mm 2 m/s 759 mmHg 42%
    12:00 +20°C° 0 mm 3 m/s 759 mmHg 38%
    13:00 +20°C° 0 mm 2 m/s 758 mmHg 36%
    14:00 +21°C° 0 mm 2 m/s 758 mmHg 35%
    15:00 +21°C° 0 mm 2 m/s 757 mmHg 33%
    16:00 +21°C° 0 mm 2 m/s 757 mmHg 33%
    17:00 +20°C° 0 mm 2 m/s 758 mmHg 34%
    18:00 +21°C° 0 mm 1 m/s 758 mmHg 34%
    19:00 +21°C° 0 mm 1 m/s 758 mmHg 36%
    20:00 +20°C° 0 mm 1 m/s 758 mmHg 38%
    21:00 +20°C° 0 mm 1 m/s 759 mmHg 40%
    22:00 +19°C° 0 mm 1 m/s 759 mmHg 42%
    23:00 +18°C° 0 mm 1 m/s 758 mmHg 44%

    25 Março, Segunda-feira

    Tempo Temperatura Precipitação Vento Pressão Humidade
    00:00 +16°C° 0 mm 0 m/s 758 mmHg 46%
    01:00 +16°C° 0 mm 1 m/s 758 mmHg 47%
    02:00 +16°C° 0 mm 1 m/s 758 mmHg 48%
    03:00 +16°C° 0 mm 1 m/s 758 mmHg 49%
    04:00 +16°C° 0 mm 1 m/s 758 mmHg 49%
    05:00 +15°C° 0 mm 1 m/s 758 mmHg 49%
    06:00 +15°C° 0 mm 1 m/s 758 mmHg 50%
    07:00 +18°C° 0 mm 1 m/s 758 mmHg 45%
    08:00 +19°C° 0 mm 1 m/s 758 mmHg 41%
    09:00 +20°C° 0 mm 1 m/s 759 mmHg 37%
    10:00 +21°C° 0 mm 1 m/s 758 mmHg 35%
    11:00 +22°C° 0 mm 1 m/s 758 mmHg 33%
    12:00 +22°C° 0 mm 1 m/s 757 mmHg 31%
    13:00 +23°C° 0 mm 1 m/s 757 mmHg 30%
    14:00 +23°C° 0 mm 1 m/s 756 mmHg 29%
    15:00 +24°C° 0 mm 1 m/s 756 mmHg 27%
    16:00 +23°C° 0 mm 1 m/s 756 mmHg 28%
    17:00 +23°C° 0 mm 1 m/s 756 mmHg 29%
    18:00 +23°C° 0 mm 1 m/s 756 mmHg 30%
    19:00 +22°C° 0 mm 1 m/s 756 mmHg 31%
    20:00 +22°C° 0 mm 1 m/s 757 mmHg 33%
    21:00 +21°C° 0 mm 1 m/s 757 mmHg 35%
    22:00 +20°C° 0 mm 1 m/s 757 mmHg 36%
    23:00 +20°C° 0 mm 1 m/s 757 mmHg 38%

    26 Março, Terça-feira

    Tempo Temperatura Precipitação Vento Pressão Humidade
    00:00 +19°C° 0 mm 1 m/s 756 mmHg 39%
    01:00 +19°C° 0 mm 1 m/s 756 mmHg 40%
    02:00 +18°C° 0 mm 1 m/s 756 mmHg 40%
    03:00 +18°C° 0 mm 1 m/s 756 mmHg 41%
    04:00 +18°C° 0 mm 1 m/s 756 mmHg 41%
    05:00 +18°C° 0 mm 1 m/s 756 mmHg 41%
    06:00 +18°C° 0 mm 1 m/s 756 mmHg 42%
    07:00 +19°C° 0 mm 1 m/s 756 mmHg 37%
    08:00 +19°C° 0 mm 0 m/s 757 mmHg 32%
    09:00 +21°C° 0 mm 0 m/s 757 mmHg 28%
    10:00 +24°C° 0 mm 1 m/s 757 mmHg 26%
    11:00 +25°C° 0 mm 1 m/s 756 mmHg 25%
    12:00 +26°C° 0 mm 2 m/s 756 mmHg 23%
    13:00 +26°C° 0 mm 2 m/s 756 mmHg 22%
    14:00 +26°C° 0 mm 2 m/s 755 mmHg 22%
    15:00 +26°C° 0 mm 2 m/s 755 mmHg 21%
    16:00 +26°C° 0 mm 2 m/s 755 mmHg 22%
    17:00 +25°C° 0 mm 2 m/s 755 mmHg 24%
    18:00 +25°C° 0 mm 2 m/s 755 mmHg 25%
    19:00 +24°C° 0 mm 1 m/s 756 mmHg 27%
    20:00 +23°C° 0 mm 1 m/s 756 mmHg 29%
    21:00 +23°C° 0 mm 1 m/s 757 mmHg 31%
    22:00 +22°C° 0 mm 1 m/s 757 mmHg 32%
    23:00 +22°C° 0 mm 1 m/s 756 mmHg 32%

    27 Março, Quarta-feira

    Tempo Temperatura Precipitação Vento Pressão Humidade
    00:00 +21°C° 0 mm 2 m/s 756 mmHg 33%
    01:00 +20°C° 0 mm 2 m/s 756 mmHg 35%
    02:00 +20°C° 0 mm 2 m/s 757 mmHg 36%
    03:00 +19°C° 0 mm 2 m/s 757 mmHg 38%
    04:00 +19°C° 0 mm 3 m/s 757 mmHg 41%
    05:00 +18°C° 0 mm 4 m/s 757 mmHg 44%
    06:00 +17°C° 0 mm 4 m/s 757 mmHg 47%
    07:00 +19°C° 0 mm 5 m/s 758 mmHg 44%
    08:00 +20°C° 0 mm 6 m/s 758 mmHg 40%
    09:00 +21°C° 0 mm 6 m/s 758 mmHg 37%
    10:00 +22°C° 0 mm 6 m/s 758 mmHg 35%
    11:00 +23°C° 0 mm 7 m/s 758 mmHg 33%
    12:00 +23°C° 0 mm 7 m/s 757 mmHg 31%
    13:00 +24°C° 0 mm 7 m/s 757 mmHg 29%
    14:00 +24°C° 0 mm 7 m/s 757 mmHg 28%
    15:00 +26°C° 0 mm 7 m/s 756 mmHg 27%
    16:00 +24°C° 0 mm 7 m/s 756 mmHg 27%
    17:00 +24°C° 0 mm 6 m/s 757 mmHg 27%
    18:00 +23°C° 0 mm 6 m/s 757 mmHg 27%
    19:00 +23°C° 0 mm 6 m/s 757 mmHg 29%
    20:00 +22°C° 0 mm 6 m/s 758 mmHg 31%
    21:00 +21°C° 0 mm 5 m/s 758 mmHg 33%
    22:00 +21°C° 0 mm 5 m/s 758 mmHg 38%
    23:00 +20°C° 0 mm 5 m/s 758 mmHg 43%
    Mostrar mais